Burlington, NC

12:59 AM EST on January 24, 2018 (GMT -0500)
Burlington-Alamance Regional

Weather History for KBUY - August, 2013

Change the Weather History Date:

Tuesday, August 13, 2013

  Actual Average Record
Temperature  
Mean Temperature 80 °F -  
Max Temperature 88 °F 85 °F 100 °F (1956)
Min Temperature 71 °F 65 °F 55 °F (1979)
Cooling Degree Days 14    
Growing Degree Days 30 (Base 50)    
Moisture  
Dew Point 72 °F    
Average Humidity 88    
Maximum Humidity 100    
Minimum Humidity 61    
Precipitation  
Precipitation 0.06 in - - ()
Sea Level Pressure  
Sea Level Pressure 29.87 in    
Wind  
Wind Speed 4 mph (SW)    
Max Wind Speed 12 mph    
Max Gust Speed 17 mph    
Visibility 10 miles    
Events Rain , Thunderstorm    
Averages and records for this station are not official NWS values.
T = Trace of Precipitation, MM = Missing Value Source: NWS Daily Summary

Daily Weather History Graph

Daily Weather History Graph

Search for Another Location

Airport or City:

Trip Planner

Search our weather history database for the weather conditions in past years. The results will help you decide how hot, cold, wet, or windy it might be!

Date:

Astronomy

Aug. 13, 2013 Rise Set
Actual Time 6:34 AM EDT 8:09 PM EDT
Civil Twilight 6:07 AM EDT 8:37 PM EDT
Nautical Twilight 5:34 AM EDT 9:10 PM EDT
Astronomical Twilight 4:59 AM EDT 9:44 PM EDT
Moon 1:13 PM EDT (8/13) 11:58 PM EDT (8/13)
Length of Visible Light 14h 29m
Length of Day
13h 35m
Waxing Crescent, 41% of the Moon is Illuminated
Aug 13
Waxing Crescent
Aug 14
First Quarter
Aug 20
Full
Aug 28
Last Quarter
Sep 5
New

Hourly Weather History & Observations

Time (EDT) Temp. Heat Index Dew Point Humidity Pressure Visibility Wind Dir Wind Speed Gust Speed Precip Events Conditions
1:47 AM 71.6 °F - 71.6 °F 100% 29.95 in 10.0 mi East 3.5 mph - N/A   Mostly Cloudy
1:54 AM 72.0 °F - 71.1 °F 97% 29.93 in 10.0 mi Calm Calm - N/A   Overcast
2:12 AM 71.6 °F - 71.6 °F 100% 29.95 in 10.0 mi Calm Calm - N/A   Scattered Clouds
2:54 AM 72.0 °F - 71.1 °F 97% 29.92 in 10.0 mi Calm Calm - N/A   Mostly Cloudy
3:05 AM 71.6 °F - 69.8 °F 94% 29.95 in 10.0 mi Variable 4.6 mph - N/A   Overcast
3:54 AM 72.0 °F - 70.0 °F 93% 29.90 in 10.0 mi Calm Calm - N/A   Clear
4:54 AM 71.1 °F - 69.1 °F 93% 29.87 in 10.0 mi SSW 3.5 mph - N/A   Clear
5:54 AM 71.1 °F - 70.0 °F 96% 29.87 in 10.0 mi SW 4.6 mph - N/A   Clear
6:54 AM 71.1 °F - 70.0 °F 96% 29.88 in 10.0 mi WSW 4.6 mph - N/A   Clear
7:54 AM 73.0 °F - 71.1 °F 93% 29.88 in 10.0 mi SW 4.6 mph - N/A   Clear
8:01 AM 73.4 °F - 71.6 °F 94% 29.90 in 10.0 mi SSW 3.5 mph - N/A   Partly Cloudy
8:19 AM 73.4 °F - 71.6 °F 94% 29.91 in 10.0 mi SW 3.5 mph - N/A   Mostly Cloudy
8:54 AM 73.9 °F - 71.1 °F 91% 29.90 in 10.0 mi Calm Calm - N/A   Overcast
9:52 AM 77.0 °F - 73.4 °F 89% 29.91 in 10.0 mi SW 5.8 mph - N/A   Overcast
9:54 AM 77.0 °F - 73.0 °F 88% 29.89 in 10.0 mi SW 6.9 mph - N/A   Overcast
10:33 AM 78.8 °F - 73.4 °F 83% 29.92 in 10.0 mi WSW 8.1 mph - N/A   Overcast
10:54 AM 79.0 °F - 73.9 °F 84% 29.89 in 10.0 mi WSW 6.9 mph - N/A   Mostly Cloudy
11:54 AM 80.1 °F 84.2 °F 73.0 °F 79% 29.89 in 10.0 mi South 4.6 mph - N/A   Partly Cloudy
12:54 PM 82.9 °F 88.0 °F 72.0 °F 69% 29.87 in 10.0 mi South 6.9 mph - N/A   Partly Cloudy
1:54 PM 84.0 °F 90.2 °F 73.0 °F 69% 29.86 in 10.0 mi SW 8.1 mph - N/A   Clear
2:54 PM 84.9 °F 91.4 °F 73.0 °F 67% 29.83 in 10.0 mi Variable 5.8 mph - N/A   Clear
3:54 PM 88.0 °F 95.6 °F 73.0 °F 61% 29.80 in 10.0 mi SSW 6.9 mph - N/A   Scattered Clouds
4:54 PM 84.0 °F 89.6 °F 72.0 °F 67% 29.80 in 10.0 mi WSW 3.5 mph - N/A   Partly Cloudy
5:31 PM 78.8 °F - 73.4 °F 83% 29.84 in 2.5 mi SW 11.5 mph 17.3 mph 0.01 in Rain , Thunderstorm Heavy Rain
5:46 PM 75.2 °F - 71.6 °F 89% 29.83 in 6.0 mi West 9.2 mph - 0.03 in Rain , Thunderstorm Light Rain
5:54 PM 75.9 °F - 72.0 °F 87% 29.82 in 10.0 mi West 6.9 mph - 0.05 in Rain , Thunderstorm Light Rain
5:59 PM 75.2 °F - 71.6 °F 89% 29.83 in 10.0 mi West 8.1 mph - 0.00 in Rain , Thunderstorm Light Rain
6:20 PM 75.2 °F - 71.6 °F 89% 29.82 in 10.0 mi Calm Calm - 0.01 in   Partly Cloudy
6:54 PM 75.9 °F - 72.0 °F 87% 29.80 in 10.0 mi West 3.5 mph - 0.01 in   Clear
7:54 PM 75.9 °F - 72.0 °F 87% 29.81 in 10.0 mi SSW 3.5 mph - N/A   Clear
8:54 PM 73.9 °F - 72.0 °F 93% 29.83 in 10.0 mi South 4.6 mph - N/A   Mostly Cloudy
9:54 PM 73.0 °F - 71.1 °F 93% 29.83 in 10.0 mi West 3.5 mph - N/A   Scattered Clouds
10:54 PM 73.0 °F - 72.0 °F 96% 29.84 in 10.0 mi West 3.5 mph - N/A   Mostly Cloudy
11:54 PM 73.9 °F - 72.0 °F 93% 29.84 in 10.0 mi West 4.6 mph - N/A   Overcast